CAPE
22 6 0 0 0 0 0 0 0 15 0 33 0 0 0 1 27 1 0 0 0 0 0 0 0 0 0 0 0 0 0 0 0 0 0 0 0 0 0 0 0 0 0 0
8 16 0 0 0 0 0 0 26 7 0 6 0 0 0 1 0 0 0 0 0 0 2 0 0 0 0 0 0 0 0 0 0 0 0 0 0 0 0 0 0 0 0 0
1 5 0 0 0 0 0 1 0 75 0 0 0 0 0 0 0 0 0 0 9 0 0 0 0 0 0 0 0 0 0 0 0 0 0 0 0 0 0 0 0 0 0 0
0 7 0 0 0 0 0 49 26 24 0 0 0 0 0 0 0 0 1 2 28 9 0 0 0 0 0 0 0 0 0 0 0 0 0 0 0 0 0 0 0 0 0 0
8 3 0 0 0 0 6 35 35 7 0 0 0 0 0 0 0 0 22 68 10 3 5 0 0 0 0 0 0 0 0 0 0 0 0 0 0 0 0 0 0 0 0 0
5 0 0 0 0 0 23 28 0 10 0 0 0 0 0 0 1 0 0 67 9 1 0 0 0 0 0 0 0 0 0 0 0 0 0 0 0 0 0 0 0 0 0 0
14 0 0 0 0 0 78 147 34 5 0 0 0 0 0 0 20 5 0 0 3 0 0 0 0 0 0 0 0 0 0 0 0 0 0 0 0 0 0 0 0 0 0 0
0 0 0 0 0 0 131 92 52 0 0 0 0 0 0 0 0 0 0 0 0 0 0 0 0 0 0 0 0 0 0 0 0 0 0 0 0 0 0 0 0 0 0 0
0 0 0 0 0 0 110 121 0 7 0 0 0 0 0 0 0 0 0 0 0 0 0 0 0 0 0 0 0 0 0 0 0 0 0 0 0 0 0 0 0 0 0 0
0 0 0 0 0 0 139 53 0 81 10 0 0 0 0 0 0 4 0 0 0 0 0 0 0 0 0 0 0 0 0 0 0 0 0 0 0 0 0 0 0 0 0 0
0 0 0 0 0 0 169 62 0 173 61 0 0 0 0 0 1 0 0 0 0 0 0 0 0 0 0 0 0 0 0 0 0 0 0 0 0 0 0 0 0 0 0 0
0 0 0 0 0 0 119 156 0 32 111 0 0 0 0 0 0 4 0 15 0 0 0 0 0 0 0 0 0 0 0 0 0 0 0 0 0 0 0 0 0 0 0 0
0 0 0 0 0 0 59 63 4 52 50 2 3 0 0 0 0 0 0 0 0 0 0 0 0 0 0 0 0 0 0 0 0 0 0 0 0 0 0 0 0 0 0 0
0 0 0 0 0 0 35 74 0 5 50 3 0 0 0 0 0 0 0 0 0 0 0 0 0 0 0 0 0 0 0 0 0 0 0 0 0 0 0 0 0 0 0 0
0 0 0 0 0 0 0 0 0 0 2 15 1 0 0 0 0 0 0 0 0 0 0 0 0 0 0 0 0 0 0 0 0 0 0 0 0 0 0 0 0 0 0 0
0 0 0 0 0 0 30 22 0 0 0 59 22 0 0 0 0 0 0 0 0 0 0 0 0 0 0 0 0 0 0 0 0 0 0 0 0 0 0 0 0 0 0 0
0 0 0 0 0 0 7 10 0 0 0 1 2 2 0 0 0 0 0 0 0 0 0 0 0 0 0 0 0 0 0 0 0 0 0 0 0 0 0 0 0 0 0 0
0 0 0 0 0 3 4 0 0 0 0 0 0 0 0 0 0 0 1 0 0 0 0 0 0 0 0 0 0 0 0 0 0 0 0 0 0 0 0 0 1 5 4 2
0 0 0 0 0 0 3 0 0 0 0 0 0 0 0 1 0 0 0 0 0 0 0 0 0 0 0 1 1 0 0 0 1 0 0 0 1 4 4 3 3 0 0 0
0 0 0 0 0 0 0 0 0 0 0 0 0 0 0 0 0 0 0 0 0 0 0 0 1 0 6 2 3 3 0 0 0 0 3 1 1 2 1 0 0 0 0 0
0 0 0 0 0 0 0 0 0 0 0 0 0 0 0 1 0 0 0 0 0 0 0 0 0 0 4 2 3 4 4 2 1 1 1 1 0 0 0 0 0 1 1 0
0 1 0 0 0 0 0 0 0 0 0 0 0 0 2 0 0 0 0 0 0 0 0 1 0 3 2 2 3 2 1 2 1 0 0 0 0 1 0 0 0 0 0 0
0 0 0 0 0 0 0 0 0 0 0 0 0 0 0 1 0 0 0 0 0 0 2 0 2 1 1 1 1 0 0 0 0 0 0 0 0 0 0 0 0 0 0 0
0 0 0 0 0 0 0 0 0 0 0 0 0 0 0 0 0 0 1 0 0 0 0 1 1 1 1 1 2 0 0 0 0 0 0 0 0 0 0 0 0 0 0 0
0 0 0 0 2 2 2 1 1 1 0 0 0 0 0 0 0 0 0 0 1 1 3 0 0 1 2 1 0 0 0 0 0 0 0 0 0 0 0 0 0 0 0 0
0 0 2 1 1 2 1 1 0 1 0 0 0 0 0 0 0 0 0 0 1 1 1 0 0 0 1 0 0 0 0 0 0 0 0 0 0 0 0 0 0 0 0 0
0 0 0 0 0 0 0 0 0 1 1 0 1 0 0 1 1 0 2 2 0 1 0 0 0 0 1 2 2 0 0 0 0 0 0 0 0 0 0 0 0 0 0 0
CIN
-1 0 0 0 0 0 0 0 0 -85 0 -18 0 0 0 -23 -23 -7 0 0 0 0 0 0 0 0 0 0 0 0 0 0 0 0 0 0 0 0 0 0 0 0 0 0
-11 0 0 0 0 0 0 0 -15 -32 0 -3 0 0 0 -14 0 0 0 0 0 0 -21 0 -17 0 0 0 0 0 0 0 0 0 0 0 0 0 0 0 0 0 0 0
-9 -1 0 0 0 0 0 -1 0 -23 -2 0 0 0 0 0 0 0 -4 0 -140 0 0 0 0 0 0 0 0 0 0 0 0 0 0 0 0 0 0 0 0 0 0 0
0 -16 0 0 0 0 0 -10 -1 -3 0 0 0 0 0 0 0 0 -7 -117 -86 -73 0 0 0 0 0 0 0 0 0 0 0 0 0 0 0 0 0 0 0 0 0 0
-9 -18 0 0 0 0 -65 -5 -13 -34 -1 0 0 0 0 0 0 0 -95 -69 -113 -88 -33 0 0 0 0 0 0 0 0 0 0 0 0 0 0 0 0 0 0 0 0 0
0 0 0 0 0 0 -24 -80 -20 -6 0 0 0 0 0 0 -22 0 -8 -84 -112 -73 0 0 0 0 0 0 0 0 0 0 0 0 0 0 0 0 0 0 0 0 0 0
0 0 0 0 0 0 -19 -47 -39 -6 0 0 0 0 0 0 -47 -15 0 -28 -49 0 0 0 0 0 0 0 0 0 0 0 0 0 0 0 0 0 0 0 0 0 0 0
0 0 0 0 0 0 -109 -100 -24 0 0 0 0 0 0 -11 0 0 0 0 0 0 0 0 0 0 0 0 0 0 0 0 0 0 0 0 0 0 0 0 0 0 0 0
0 0 0 0 0 0 -117 -113 0 -8 0 0 0 0 0 0 -19 0 0 0 0 0 0 0 0 0 0 0 0 0 0 0 0 0 0 0 0 0 0 0 0 0 0 0
0 0 0 0 0 0 -116 -109 0 -15 -5 0 0 0 0 0 0 -86 0 0 0 0 0 0 0 0 0 0 0 0 0 0 0 0 0 0 0 0 0 0 0 0 0 0
0 0 0 0 0 0 -145 -172 0 -35 -35 0 0 0 0 0 -26 0 0 0 0 0 0 0 0 0 0 0 0 0 0 0 0 0 0 0 0 0 0 0 0 0 0 0
0 0 0 0 0 0 -159 -101 0 -139 -52 0 0 0 0 0 -7 -12 0 -95 0 0 0 0 0 0 0 0 0 0 0 0 0 0 0 0 0 0 0 0 0 0 0 0
0 0 0 0 0 0 -177 -157 -124 -151 -151 -16 -13 0 0 0 0 0 0 0 0 0 0 0 0 0 0 0 0 0 0 0 0 0 0 0 0 0 0 0 0 0 0 0
0 0 0 0 0 0 -183 -121 0 -60 -51 -31 0 0 0 0 0 0 0 0 0 0 0 0 0 0 0 0 0 0 0 0 0 0 0 0 0 0 0 0 0 0 0 0
0 0 0 0 0 0 0 0 0 0 -24 -80 -41 0 0 0 0 0 0 0 0 0 0 0 0 0 0 0 0 0 0 0 0 0 0 0 0 0 0 0 0 0 0 0
0 0 0 0 0 0 -80 -49 0 0 0 -98 -64 0 0 0 0 0 0 0 0 0 0 0 0 0 0 0 0 0 0 0 0 0 0 0 0 0 0 0 0 0 0 0
0 0 0 0 0 0 -31 -9 0 0 0 -24 -24 -28 0 0 0 0 0 0 0 0 0 0 0 0 0 0 0 0 0 0 0 0 0 0 0 0 0 0 0 0 0 0
0 0 0 0 0 -64 -106 0 0 0 0 0 0 0 0 0 0 0 0 0 0 0 0 0 0 0 0 0 0 0 0 0 0 0 0 0 0 0 0 0 0 0 0 0
0 0 0 0 0 -27 -53 0 0 0 0 0 0 0 0 0 0 0 0 0 0 0 0 0 0 0 0 0 0 0 0 0 0 0 0 0 0 0 0 0 0 0 0 0
0 0 0 0 0 0 0 0 0 0 0 0 0 0 0 0 0 0 0 0 0 0 0 0 0 0 0 0 0 0 0 0 0 0 0 0 0 0 0 0 0 0 0 0
0 0 0 0 0 0 0 0 0 0 0 0 0 0 0 0 0 0 0 0 0 0 0 0 0 0 0 0 0 0 0 0 0 0 0 0 0 0 0 0 0 0 0 0
0 -31 0 0 0 0 0 0 0 0 0 0 0 0 0 0 0 0 0 0 0 0 0 0 0 0 0 0 0 0 0 0 0 0 0 0 0 0 0 0 0 0 0 0
0 0 0 0 0 0 0 0 0 0 0 0 0 0 0 0 0 0 0 0 0 0 0 0 0 0 0 0 0 0 0 0 0 0 0 0 0 0 0 0 0 0 0 0
0 0 0 0 0 0 0 0 0 0 0 0 0 0 0 0 0 0 0 0 0 0 0 0 0 0 0 0 0 0 0 0 0 0 0 0 0 0 0 0 0 0 0 0
0 0 0 0 0 0 0 0 0 0 0 0 0 0 0 0 0 0 0 0 0 0 0 0 0 0 0 0 0 0 0 0 0 0 0 0 0 0 0 0 0 0 0 0
0 0 0 0 0 0 0 0 0 0 0 0 0 0 0 0 0 0 0 0 0 0 0 0 0 0 0 0 0 0 0 0 0 0 0 0 0 0 0 0 0 0 0 0
0 0 0 0 0 0 0 0 0 0 0 0 0 0 0 0 0 0 0 0 0 0 0 0 0 0 0 0 0 0 0 0 0 0 0 0 0 0 0 0 0 0 0 0
Wind_Speed
51 51 43 39 36 31 28 26 27 20 18 14 13 19 27 23 22 21 24 21 18 18 15 17 19 20 21 15 16 19 17 18 19 18 17 20 21 21 16 22 15 14 15 16
49 55 47 43 39 35 31 31 23 22 25 18 16 25 27 25 22 23 23 19 16 14 11 16 15 14 15 15 15 16 15 19 20 18 19 20 24 12 12 10 12 7 12 16
49 51 48 47 44 43 36 30 27 24 28 27 21 28 30 26 21 20 19 16 14 10 13 15 12 11 14 14 15 16 16 21 24 29 20 18 14 4 3 3 9 11 7 12
53 51 47 50 50 47 37 33 30 25 29 27 28 32 27 27 22 21 20 16 15 9 12 12 14 14 13 15 12 16 19 24 23 24 23 22 21 5 5 7 3 10 15 13
50 52 49 49 47 44 40 36 29 28 23 29 30 33 32 30 22 20 20 14 8 8 14 13 14 13 17 18 16 17 18 23 22 27 24 24 28 2 2 4 5 8 10 11
51 51 49 47 45 46 39 32 25 29 25 32 34 36 31 29 21 21 19 10 9 11 14 14 12 11 12 14 16 16 18 16 20 25 22 23 31 12 8 9 12 14 17 17
51 50 48 45 44 49 36 30 27 27 32 35 38 34 30 28 25 20 18 15 14 13 8 8 9 10 11 13 14 15 13 14 17 21 18 22 20 17 17 13 13 16 17 21
46 47 46 44 45 54 32 29 29 28 29 33 35 35 31 25 23 21 18 18 16 8 14 14 14 16 16 16 15 15 15 12 16 18 18 27 27 19 19 19 24 24 22 23
48 45 45 47 48 49 30 27 25 25 28 39 30 35 32 30 28 22 20 14 5 15 18 16 16 16 16 15 15 15 15 15 16 16 21 23 21 20 18 19 28 23 22 22
44 46 48 47 48 48 28 26 22 24 29 26 30 34 37 29 28 24 20 16 20 19 20 20 18 18 17 15 14 14 15 17 16 18 22 25 20 20 17 24 25 26 25 22
46 47 47 47 49 48 26 23 20 24 26 25 27 28 29 29 29 26 18 17 21 20 21 21 20 20 19 20 18 18 18 18 19 19 23 29 14 16 22 25 26 27 27 23
44 45 45 47 48 47 24 20 18 16 22 24 20 21 22 25 25 22 17 22 18 16 18 19 17 20 17 19 23 17 22 18 21 17 21 19 16 23 23 25 28 28 27 27
41 44 45 48 47 41 22 19 16 15 20 20 22 23 19 18 21 20 21 22 17 16 16 15 17 21 16 20 22 20 18 16 21 22 21 21 22 22 23 25 26 27 28 27
38 41 45 41 34 30 21 19 18 14 18 22 23 18 19 19 18 18 18 15 13 11 15 17 19 21 17 20 21 20 20 16 21 23 26 24 22 24 25 27 28 29 29 28
26 25 29 27 26 25 17 14 20 17 17 21 20 15 15 15 14 12 11 8 12 15 17 19 20 18 17 20 19 21 19 23 24 27 27 27 27 28 32 30 31 31 31 31
18 20 21 22 23 18 24 19 22 18 17 16 20 17 16 13 10 10 11 13 14 16 18 19 18 17 18 19 21 20 21 23 25 26 31 29 29 26 29 29 30 30 29 28
18 19 19 18 21 21 21 20 18 18 15 15 16 18 17 16 14 15 15 15 16 17 18 20 19 19 17 21 23 23 25 27 26 27 29 23 28 27 27 27 26 26 26 25
16 16 15 14 13 16 16 14 13 14 13 13 15 16 16 16 17 17 18 18 18 20 19 19 21 19 19 23 22 25 27 28 21 28 26 24 24 24 24 23 23 23 24 23
16 16 17 16 17 19 17 16 14 11 13 17 17 16 17 16 16 16 17 18 21 19 21 20 18 20 22 22 24 25 27 27 27 24 24 22 22 22 22 22 22 22 22 22
15 15 15 16 17 16 15 13 15 15 16 15 16 15 16 15 16 17 17 18 19 22 20 18 20 23 19 21 21 22 24 26 18 22 23 21 21 21 21 21 20 20 20 21
13 12 13 14 14 13 14 15 16 17 17 17 15 15 15 15 17 17 18 18 19 23 21 20 21 23 20 18 18 19 21 20 19 17 16 16 17 18 19 20 21 23 25 25
13 8 8 12 14 14 14 16 16 16 17 15 15 16 16 16 16 17 18 20 20 25 18 21 25 21 15 14 15 16 15 16 17 17 17 18 20 21 22 24 25 26 27 27
12 11 14 16 18 17 18 18 18 18 16 16 16 17 18 17 17 18 19 22 23 18 22 25 24 15 11 10 11 13 15 16 17 19 20 20 22 23 24 25 26 26 26 26
13 15 15 17 17 17 18 17 15 15 15 13 13 15 17 17 18 18 20 20 20 24 26 25 16 9 7 9 11 12 15 17 19 20 21 22 23 23 23 24 25 26 27 27
12 14 17 18 14 14 15 14 14 14 13 13 14 15 15 16 17 17 17 19 22 22 24 20 10 6 7 9 11 13 15 18 20 20 21 21 22 23 23 24 25 27 28 30
15 15 15 11 11 13 14 13 13 14 13 13 14 16 18 19 18 19 20 22 24 22 19 13 9 7 7 9 12 14 16 17 18 19 20 21 22 23 24 24 27 29 31 33
15 14 12 11 10 11 13 13 14 15 13 14 14 17 18 16 20 20 19 21 20 15 13 10 8 6 7 10 13 15 15 16 18 19 21 21 22 23 25 29 31 32 33 34
Wind_Direction
225 224 217 212 210 206 210 219 222 220 208 207 224 227 228 232 239 239 231 236 247 246 256 260 259 261 266 281 281 272 279 280 280 282 289 276 270 267 279 262 299 316 331 342
226 218 212 207 204 199 207 212 221 222 222 209 207 227 226 231 238 232 232 242 257 268 281 275 280 281 285 285 285 284 279 278 272 279 279 274 258 295 303 325 330 352 342 340
220 216 208 204 202 203 208 209 213 218 224 232 217 221 222 227 239 236 239 251 267 289 291 289 297 292 284 286 285 285 279 267 260 241 270 278 297 140 138 125 330 333 329 337
214 208 204 201 202 202 210 213 219 215 210 218 220 219 222 224 232 237 238 256 269 296 296 299 281 279 282 280 295 285 273 261 264 265 275 278 283 352 153 183 260 323 329 329
211 204 200 199 200 199 210 210 216 218 209 214 217 217 221 222 231 233 239 259 287 312 293 295 278 277 270 275 281 276 275 261 268 259 277 281 272 200 250 241 261 280 284 274
209 197 197 197 198 199 207 214 221 212 220 214 217 219 221 223 228 236 245 265 290 302 290 286 297 298 303 296 282 275 274 285 283 274 292 295 276 232 236 298 307 307 309 315
198 195 195 196 199 202 208 214 215 214 215 217 217 219 222 224 228 235 243 258 279 290 45 24 343 331 315 301 291 286 298 302 300 298 313 303 314 322 323 312 310 310 307 314
191 193 194 197 200 201 214 217 217 219 219 218 219 220 222 225 231 236 245 259 272 82 263 282 285 279 281 288 295 296 304 315 311 311 312 306 310 323 323 324 321 327 320 321
190 193 195 198 199 201 217 218 223 224 219 220 225 219 222 225 228 235 246 264 283 265 258 267 279 282 288 295 304 306 312 313 313 319 315 315 324 333 339 336 320 338 341 338
190 192 194 198 199 201 216 218 226 227 224 229 224 223 222 229 231 236 245 249 258 264 262 266 277 285 283 301 309 315 314 312 313 315 314 315 330 332 341 324 327 338 338 334
187 190 194 197 197 199 217 218 232 229 226 228 230 230 228 228 231 236 245 251 259 261 263 269 277 282 288 293 303 309 312 316 316 322 319 314 351 350 330 330 331 332 333 332
189 193 196 197 197 198 216 218 230 237 230 232 238 238 241 238 239 241 239 258 264 270 274 282 294 290 303 301 299 320 310 318 319 323 325 334 333 330 332 331 328 329 328 329
191 193 195 195 197 201 221 217 227 236 230 232 232 233 243 251 247 251 251 257 269 275 289 293 298 296 310 304 306 315 323 327 320 323 329 327 328 329 329 329 328 329 328 326
192 193 192 196 195 199 218 222 227 236 232 231 231 244 243 259 254 257 263 271 275 286 289 292 298 300 313 309 316 317 325 329 323 321 323 326 330 330 331 330 329 328 328 328
192 190 190 186 180 199 217 227 228 236 243 233 226 239 258 264 261 266 274 272 274 277 285 293 297 309 314 315 318 317 323 322 319 319 327 326 326 329 327 327 328 329 328 327
168 170 169 166 165 188 210 224 236 244 245 240 230 247 253 265 272 278 280 282 285 289 291 295 305 315 312 312 311 324 330 329 327 321 322 323 325 330 333 332 332 334 334 335
155 149 151 170 187 199 216 227 230 237 247 250 239 245 257 265 270 275 281 290 290 294 296 297 303 309 310 310 308 321 325 324 326 329 328 331 333 330 335 338 341 345 349 349
132 142 147 154 160 192 221 239 242 243 253 259 251 256 254 272 269 272 286 285 292 298 298 304 303 310 311 308 318 322 325 326 332 330 333 332 335 340 343 347 349 351 351 354
157 166 177 193 205 214 223 237 246 257 263 252 259 255 262 274 277 284 289 293 290 301 296 301 307 306 305 315 319 322 325 325 324 333 338 342 344 346 349 353 354 356 357 358
188 196 207 213 223 230 240 251 253 263 271 275 267 274 272 281 280 285 292 298 296 294 301 311 304 305 316 321 325 328 329 330 335 332 334 343 348 353 358 360 2 2 0 357
212 226 230 217 233 245 258 258 261 266 266 276 277 280 280 294 286 289 296 298 303 297 302 302 305 307 314 327 332 338 341 345 352 359 4 8 9 5 1 357 354 351 348 345
228 222 229 240 250 260 261 259 266 274 268 279 279 284 290 293 298 298 301 299 303 297 311 305 303 314 326 335 342 353 6 12 14 14 11 6 0 356 352 350 347 345 344 344
244 256 255 260 262 263 259 260 268 272 281 284 284 285 291 298 301 301 300 296 296 310 302 302 310 321 328 346 358 3 4 3 2 360 357 354 351 350 349 348 349 350 352 353
266 264 256 266 269 275 279 279 287 295 295 296 298 297 298 302 299 301 298 302 305 299 299 303 313 323 341 353 357 358 354 354 352 351 351 351 351 353 356 356 355 354 354 352
276 281 269 274 299 300 296 297 296 300 305 304 303 304 307 306 304 307 305 304 301 303 305 315 325 334 344 345 347 347 347 347 347 350 351 353 354 354 356 358 357 355 352 348
286 296 296 310 306 300 300 307 308 311 312 313 309 304 302 299 303 301 299 301 301 310 318 328 336 334 342 341 342 343 344 345 349 352 353 354 354 354 354 354 352 350 348 344
295 300 316 316 313 311 310 311 309 308 310 307 313 303 303 317 305 303 310 307 314 325 333 342 346 346 342 342 342 343 349 351 351 352 352 353 353 352 350 345 346 345 344 343